This is the latest recevied weather packets stored in our database for station/object IW1QLH-13. If no packets are shown the sender has not sent any weather packets the latest 10 day(s).
| Time | Temp. | Humidity | Pressure | Rain* | Wind** | Luminosity | Snow |
|---|---|---|---|---|---|---|---|
| 1788445408 | 30° C | 11% | - | - | - | 729 W/m² | - |
| 1788444796 | 30° C | 11% | - | - | - | 772 W/m² | - |
| 1788444184 | 30° C | 11% | - | - | - | 800 W/m² | - |
| 1788443573 | 28.89° C | 11% | - | - | - | 829 W/m² | - |
| 1788442962 | 30° C | 11% | - | - | - | 843 W/m² | - |
| 1788442351 | 28.89° C | 11% | - | - | - | 858 W/m² | - |
| 1788441740 | 30° C | 11% | - | - | - | 872 W/m² | - |
| 1788441128 | 30° C | 11% | - | - | - | 886 W/m² | - |
| 1788440517 | 30° C | 11% | - | - | - | 900 W/m² | - |
| 1788439905 | 30° C | 11% | - | - | - | 900 W/m² | - |
| 1788439294 | 32.78° C | 10% | - | - | - | 929 W/m² | - |
| 1788438683 | 32.78° C | 97% | 1011 hPa | - | - | 929 W/m² | - |
| 1788438071 | 32.78° C | 10% | - | - | - | 943 W/m² | - |
| 1788437461 | 32.78° C | 11% | - | - | - | 958 W/m² | - |
| 1788436849 | 31.67° C | 11% | - | - | - | 943 W/m² | - |
| 1788436237 | 30.56° C | 11% | - | - | - | 929 W/m² | - |
| 1788435626 | 30° C | 11% | - | - | - | 700 W/m² | - |
| 1788435015 | 31.67° C | 11% | - | - | - | 958 W/m² | - |
| 1788434403 | 30.56° C | 11% | - | - | - | 529 W/m² | - |
| 1788433792 | 31.67° C | 11% | - | - | - | 900 W/m² | - |
| 1788433180 | 31.67° C | 11% | - | - | - | 886 W/m² | - |
| 1788432569 | 31.67° C | 11% | - | - | - | 872 W/m² | - |
| 1788431957 | 30.56° C | 11% | - | - | - | 858 W/m² | - |
| 1788431345 | 30.56° C | 11% | - | - | - | 843 W/m² | - |
| 1788430734 | 30.56° C | 11% | - | - | - | 829 W/m² | - |
* Rain since midnight (hover to see other rain measurements)
** Current wind speed in m/s (hover to see current wind gust speed)